Time,TemperatureF,DewpointF,PressureIn,WindDirection,WindDirectionDegrees,WindSpeedMPH,WindSpeedGustMPH,Humidity,HourlyPrecipIn,Conditions,Clouds,dailyrainin,SoftwareType,DateUTC
2013-03-09 00:01:00,30.0,27.0,-100.00,NNW,347,1.0,2.0,89,0.00,,,-99.99,,2013-03-09 07:01:00,
2013-03-09 00:11:00,29.0,26.0,-100.00,NW,316,2.0,4.0,88,0.00,,,-99.99,,2013-03-09 07:11:00,
2013-03-09 00:21:00,29.0,26.0,-100.00,WNW,287,4.0,4.0,89,0.00,,,-99.99,,2013-03-09 07:21:00,
2013-03-09 00:31:00,29.0,26.0,-100.00,NW,326,4.0,6.0,90,0.00,,,-99.99,,2013-03-09 07:31:00,
2013-03-09 00:41:00,29.0,26.0,-100.00,North,352,4.0,4.0,91,0.00,,,-99.99,,2013-03-09 07:41:00,
2013-03-09 00:51:00,29.0,26.0,-100.00,NE,34,2.0,3.0,90,0.00,,,-99.99,,2013-03-09 07:51:00,
2013-03-09 01:01:00,29.0,26.0,-100.00,NE,44,4.0,8.0,90,0.00,,,-99.99,,2013-03-09 08:01:00,
2013-03-09 01:11:00,29.0,26.0,-100.00,NNE,17,6.0,8.0,90,0.00,,,-99.99,,2013-03-09 08:11:00,
2013-03-09 01:21:00,27.0,26.0,-100.00,NE,34,4.0,6.0,92,0.00,,,-99.99,,2013-03-09 08:21:00,
2013-03-09 01:32:00,30.0,27.0,-100.00,North,7,7.0,13.0,90,0.00,,,-99.99,,2013-03-09 08:32:00,
2013-03-09 01:41:00,30.0,26.0,-100.00,NNW,347,12.0,16.0,84,0.00,,,-99.99,,2013-03-09 08:41:00,
2013-03-09 01:52:00,28.0,26.0,-100.00,North,350,14.0,17.0,91,0.00,,,-99.99,,2013-03-09 08:52:00,
2013-03-09 02:01:00,29.0,26.0,-100.00,NNW,339,14.0,16.0,90,0.00,,,-99.99,,2013-03-09 09:01:00,
2013-03-09 02:12:00,30.0,27.0,-100.00,NNW,329,14.0,16.0,85,0.00,,,-99.99,,2013-03-09 09:12:00,
2013-03-09 02:21:00,31.0,26.0,-100.00,NW,320,14.0,17.0,82,0.00,,,-99.99,,2013-03-09 09:21:00,
2013-03-09 02:31:00,31.0,26.0,-100.00,NW,319,12.0,15.0,81,0.00,,,-99.99,,2013-03-09 09:31:00,
2013-03-09 02:41:00,32.0,26.0,-100.00,NW,319,12.0,17.0,78,0.00,,,-99.99,,2013-03-09 09:41:00,
2013-03-09 02:52:00,33.0,26.0,-100.00,NW,322,12.0,17.0,76,0.00,,,-99.99,,2013-03-09 09:52:00,
2013-03-09 03:01:00,33.0,26.0,-100.00,NNW,332,15.0,18.0,74,0.00,,,-99.99,,2013-03-09 10:01:00,
2013-03-09 03:11:00,33.0,26.0,-100.00,NNW,335,14.0,18.0,74,0.01,,,-99.99,,2013-03-09 10:11:00,
2013-03-09 03:21:00,31.0,27.0,-100.00,NNW,340,17.0,22.0,86,0.06,,,-99.99,,2013-03-09 10:21:00,
2013-03-09 03:31:00,30.0,27.0,-100.00,NNW,332,15.0,20.0,90,0.01,,,-99.99,,2013-03-09 10:31:00,
2013-03-09 03:41:00,30.0,27.0,-100.00,NNW,330,14.0,17.0,91,0.00,,,-99.99,,2013-03-09 10:41:00,
2013-03-09 03:51:00,29.0,27.0,-100.00,NNW,332,13.0,17.0,93,0.03,,,-99.99,,2013-03-09 10:51:00,
2013-03-09 04:01:00,29.0,27.0,-100.00,NNW,329,16.0,21.0,93,0.01,,,-99.99,,2013-03-09 11:01:00,
2013-03-09 04:11:00,29.0,27.0,-100.00,NNW,332,17.0,23.0,92,0.01,,,-99.99,,2013-03-09 11:11:00,
2013-03-09 04:21:00,29.0,27.0,-100.00,NW,326,17.0,21.0,93,0.01,,,-99.99,,2013-03-09 11:21:00,
2013-03-09 04:32:00,29.0,27.0,-100.00,NW,325,17.0,21.0,92,0.00,,,-99.99,,2013-03-09 11:32:00,
2013-03-09 04:41:00,29.0,27.0,-100.00,NNW,328,16.0,20.0,92,0.00,,,-99.99,,2013-03-09 11:41:00,
2013-03-09 04:52:00,29.0,27.0,-100.00,NNW,330,17.0,21.0,91,0.00,,,-99.99,,2013-03-09 11:52:00,
2013-03-09 05:01:00,29.0,27.0,-100.00,NNW,337,17.0,22.0,92,0.01,,,-99.99,,2013-03-09 12:01:00,
2013-03-09 05:11:00,29.0,27.0,-100.00,NNW,337,16.0,22.0,92,0.03,,,-99.99,,2013-03-09 12:11:00,
2013-03-09 05:21:00,28.0,27.0,-100.00,NNW,339,16.0,21.0,94,0.04,,,-99.99,,2013-03-09 12:21:00,
2013-03-09 05:32:00,28.0,27.0,-100.00,NNW,339,17.0,21.0,95,0.04,,,-99.99,,2013-03-09 12:32:00,
2013-03-09 05:42:00,28.0,27.0,-100.00,NNW,336,17.0,21.0,95,0.06,,,-99.99,,2013-03-09 12:42:00,
2013-03-09 05:52:00,28.0,27.0,-100.00,NNW,336,16.0,21.0,96,0.06,,,-99.99,,2013-03-09 12:52:00,
2013-03-09 06:02:00,28.0,27.0,-100.00,NNW,333,16.0,19.0,97,0.04,,,-99.99,,2013-03-09 13:02:00,
2013-03-09 06:11:00,28.0,27.0,-100.00,NNW,333,17.0,21.0,97,0.06,,,-99.99,,2013-03-09 13:11:00,
2013-03-09 06:21:00,28.0,27.0,-100.00,NNW,337,17.0,21.0,97,0.07,,,-99.99,,2013-03-09 13:21:00,
2013-03-09 06:32:00,27.0,26.0,-100.00,NNW,339,18.0,24.0,97,0.03,,,-99.99,,2013-03-09 13:32:00,
2013-03-09 06:42:00,26.0,26.0,-100.00,NNW,346,22.0,27.0,97,0.00,,,-99.99,,2013-03-09 13:42:00,
2013-03-09 06:52:00,26.0,25.0,-100.00,North,349,23.0,29.0,96,0.01,,,-99.99,,2013-03-09 13:52:00,
2013-03-09 07:01:00,26.0,25.0,-100.00,NNW,346,22.0,27.0,96,0.01,,,-99.99,,2013-03-09 14:01:00,
2013-03-09 07:11:00,26.0,25.0,-100.00,NNW,346,22.0,27.0,96,0.07,,,-99.99,,2013-03-09 14:11:00,
2013-03-09 07:21:00,26.0,25.0,-100.00,NNW,339,20.0,25.0,96,0.03,,,-99.99,,2013-03-09 14:21:00,
2013-03-09 07:32:00,26.0,24.0,-100.00,NNW,344,24.0,29.0,95,0.03,,,-99.99,,2013-03-09 14:32:00,
2013-03-09 07:41:00,26.0,25.0,-100.00,NNW,344,18.0,23.0,96,0.04,,,-99.99,,2013-03-09 14:41:00,
2013-03-09 07:52:00,26.0,25.0,-100.00,NNW,339,17.0,22.0,96,0.08,,,-99.99,,2013-03-09 14:52:00,
2013-03-09 08:01:00,26.0,25.0,-100.00,NNW,343,18.0,22.0,96,0.04,,,-99.99,,2013-03-09 15:01:00,
2013-03-09 08:11:00,26.0,25.0,-100.00,NNW,340,17.0,24.0,96,0.04,,,-99.99,,2013-03-09 15:11:00,
2013-03-09 08:22:00,26.0,25.0,-100.00,NNW,337,21.0,26.0,95,0.03,,,-99.99,,2013-03-09 15:22:00,
2013-03-09 08:32:00,26.0,25.0,-100.00,NNW,343,21.0,25.0,95,0.03,,,-99.99,,2013-03-09 15:32:00,
2013-03-09 08:42:00,26.0,24.0,-100.00,NNW,343,21.0,29.0,94,0.01,,,-99.99,,2013-03-09 15:42:00,
2013-03-09 08:52:00,26.0,24.0,-100.00,NNW,343,23.0,27.0,94,0.01,,,-99.99,,2013-03-09 15:52:00,
2013-03-09 09:01:00,26.0,24.0,-100.00,NNW,343,22.0,27.0,94,0.03,,,-99.99,,2013-03-09 16:01:00,
2013-03-09 09:11:00,26.0,24.0,-100.00,NNW,347,22.0,27.0,94,0.06,,,-99.99,,2013-03-09 16:11:00,
2013-03-09 09:21:00,26.0,24.0,-100.00,North,352,21.0,29.0,94,0.06,,,-99.99,,2013-03-09 16:21:00,
2013-03-09 09:32:00,25.0,24.0,-100.00,North,3,21.0,27.0,96,0.07,,,-99.99,,2013-03-09 16:32:00,
2013-03-09 09:41:00,26.0,24.0,-100.00,North,349,21.0,26.0,95,0.10,,,-99.99,,2013-03-09 16:41:00,
2013-03-09 09:51:00,25.0,23.0,-100.00,NNW,346,24.0,29.0,94,0.10,,,-99.99,,2013-03-09 16:51:00,
2013-03-09 10:01:00,25.0,23.0,-100.00,North,352,27.0,32.0,93,0.04,,,-99.99,,2013-03-09 17:01:00,
2013-03-09 10:11:00,25.0,23.0,-100.00,North,353,27.0,31.0,94,0.04,,,-99.99,,2013-03-09 17:11:00,
2013-03-09 10:22:00,24.0,23.0,-100.00,North,350,26.0,32.0,94,0.04,,,-99.99,,2013-03-09 17:22:00,
2013-03-09 10:32:00,24.0,22.0,-100.00,North,356,27.0,32.0,93,0.03,,,-99.99,,2013-03-09 17:32:00,
2013-03-09 10:42:00,24.0,22.0,-100.00,North,354,26.0,32.0,93,0.00,,,-99.99,,2013-03-09 17:42:00,
2013-03-09 10:52:00,24.0,22.0,-100.00,North,352,25.0,32.0,91,0.00,,,-99.99,,2013-03-09 17:52:00,
2013-03-09 11:01:00,24.0,22.0,-100.00,North,352,28.0,34.0,92,0.00,,,-99.99,,2013-03-09 18:01:00,
2013-03-09 11:11:00,24.0,22.0,-100.00,NNW,347,27.0,32.0,91,0.00,,,-99.99,,2013-03-09 18:11:00,
2013-03-09 11:21:00,24.0,21.0,-100.00,NNW,343,28.0,33.0,90,0.00,,,-99.99,,2013-03-09 18:21:00,
2013-03-09 11:32:00,23.0,21.0,-100.00,NNW,343,27.0,34.0,90,0.00,,,-99.99,,2013-03-09 18:32:00,
2013-03-09 11:42:00,23.0,20.0,-100.00,NNW,342,28.0,36.0,88,0.00,,,-99.99,,2013-03-09 18:42:00,
2013-03-09 11:52:00,25.0,19.0,-100.00,North,354,26.0,34.0,78,0.00,,,-99.99,,2013-03-09 18:52:00,
2013-03-09 12:01:00,25.0,19.0,-100.00,North,356,28.0,33.0,78,0.00,,,-99.99,,2013-03-09 19:01:00,
2013-03-09 12:11:00,25.0,18.0,-100.00,North,353,27.0,32.0,75,0.00,,,-99.99,,2013-03-09 19:11:00,
2013-03-09 12:22:00,26.0,19.0,-100.00,North,349,26.0,31.0,77,0.00,,,-99.99,,2013-03-09 19:22:00,
2013-03-09 12:32:00,26.0,18.0,-100.00,NNW,347,26.0,34.0,73,0.00,,,-99.99,,2013-03-09 19:32:00,
2013-03-09 12:42:00,26.0,19.0,-100.00,North,353,24.0,29.0,74,0.00,,,-99.99,,2013-03-09 19:42:00,
2013-03-09 12:51:00,26.0,17.0,-100.00,North,353,25.0,31.0,70,0.00,,,-99.99,,2013-03-09 19:51:00,
2013-03-09 13:01:00,26.0,18.0,-100.00,North,352,26.0,31.0,70,0.00,,,-99.99,,2013-03-09 20:01:00,
2013-03-09 13:11:00,26.0,17.0,-100.00,North,353,26.0,31.0,68,0.00,,,-99.99,,2013-03-09 20:11:00,
2013-03-09 13:21:00,27.0,18.0,-100.00,North,357,23.0,29.0,70,0.00,,,-99.99,,2013-03-09 20:21:00,
2013-03-09 13:32:00,27.0,18.0,-100.00,NNW,346,22.0,26.0,69,0.00,,,-99.99,,2013-03-09 20:32:00,
2013-03-09 13:42:00,27.0,18.0,-100.00,NNW,347,23.0,29.0,68,0.00,,,-99.99,,2013-03-09 20:42:00,
2013-03-09 13:52:00,27.0,19.0,-100.00,NNW,342,26.0,33.0,70,0.00,,,-99.99,,2013-03-09 20:52:00,
2013-03-09 14:02:00,27.0,19.0,-100.00,NNW,339,27.0,33.0,72,0.00,,,-99.99,,2013-03-09 21:02:00,
2013-03-09 14:12:00,27.0,19.0,-100.00,NNW,339,29.0,34.0,73,0.00,,,-99.99,,2013-03-09 21:12:00,
2013-03-09 14:21:00,27.0,19.0,-100.00,NNW,339,28.0,35.0,73,0.00,,,-99.99,,2013-03-09 21:21:00,
2013-03-09 14:32:00,26.0,18.0,-100.00,NNW,339,27.0,34.0,70,0.00,,,-99.99,,2013-03-09 21:32:00,
2013-03-09 14:42:00,26.0,18.0,-100.00,NNW,343,29.0,34.0,71,0.00,,,-99.99,,2013-03-09 21:42:00,
2013-03-09 14:52:00,26.0,17.0,-100.00,NNW,344,26.0,33.0,68,0.00,,,-99.99,,2013-03-09 21:52:00,
2013-03-09 15:01:00,26.0,17.0,-100.00,NNW,346,28.0,34.0,68,0.00,,,-99.99,,2013-03-09 22:01:00,
2013-03-09 15:11:00,26.0,17.0,-100.00,NNW,346,28.0,34.0,69,0.00,,,-99.99,,2013-03-09 22:11:00,
2013-03-09 15:21:00,26.0,19.0,-100.00,NNW,346,26.0,35.0,73,0.00,,,-99.99,,2013-03-09 22:21:00,
2013-03-09 15:32:00,26.0,19.0,-100.00,NNW,342,27.0,34.0,74,0.00,,,-99.99,,2013-03-09 22:32:00,
2013-03-09 15:41:00,26.0,18.0,-100.00,NNW,342,29.0,35.0,73,0.00,,,-99.99,,2013-03-09 22:41:00,
2013-03-09 15:51:00,26.0,19.0,-100.00,NNW,340,28.0,34.0,75,0.00,,,-99.99,,2013-03-09 22:51:00,
2013-03-09 16:01:00,25.0,19.0,-100.00,NNW,339,28.0,35.0,78,0.00,,,-99.99,,2013-03-09 23:01:00,
2013-03-09 16:11:00,25.0,19.0,-100.00,NNW,339,27.0,34.0,77,0.00,,,-99.99,,2013-03-09 23:11:00,
2013-03-09 16:21:00,25.0,18.0,-100.00,NNW,344,26.0,32.0,73,0.00,,,-99.99,,2013-03-09 23:21:00,
2013-03-09 16:32:00,25.0,18.0,-100.00,NNW,346,28.0,32.0,73,0.00,,,-99.99,,2013-03-09 23:32:00,
2013-03-09 16:41:00,25.0,16.0,-100.00,NNW,347,27.0,33.0,69,0.00,,,-99.99,,2013-03-09 23:41:00,
2013-03-09 16:52:00,25.0,17.0,-100.00,NNW,343,24.0,30.0,70,0.00,,,-99.99,,2013-03-09 23:52:00,
2013-03-09 17:01:00,25.0,17.0,-100.00,NNW,343,26.0,34.0,72,0.00,,,-99.99,,2013-03-10 00:01:00,
2013-03-09 17:11:00,25.0,18.0,-100.00,NNW,336,26.0,31.0,75,0.00,,,-99.99,,2013-03-10 00:11:00,
2013-03-09 17:22:00,24.0,17.0,-100.00,NNW,336,25.0,31.0,71,0.00,,,-99.99,,2013-03-10 00:22:00,
2013-03-09 17:32:00,24.0,17.0,-100.00,NNW,336,26.0,30.0,74,0.00,,,-99.99,,2013-03-10 00:32:00,
2013-03-09 17:42:00,24.0,17.0,-100.00,NNW,339,23.0,27.0,74,0.00,,,-99.99,,2013-03-10 00:42:00,
2013-03-09 17:51:00,24.0,17.0,-100.00,NNW,340,23.0,30.0,74,0.00,,,-99.99,,2013-03-10 00:51:00,
2013-03-09 18:01:00,24.0,17.0,-100.00,NNW,342,21.0,26.0,76,0.00,,,-99.99,,2013-03-10 01:01:00,
2013-03-09 18:11:00,24.0,17.0,-100.00,NNW,343,21.0,26.0,75,0.00,,,-99.99,,2013-03-10 01:11:00,
2013-03-09 18:21:00,23.0,17.0,-100.00,NNW,336,22.0,28.0,76,0.01,,,-99.99,,2013-03-10 01:21:00,
2013-03-09 18:31:00,23.0,17.0,-100.00,NNW,336,25.0,32.0,75,0.00,,,-99.99,,2013-03-10 01:31:00,
2013-03-09 18:41:00,23.0,17.0,-100.00,NNW,339,24.0,31.0,76,0.00,,,-99.99,,2013-03-10 01:41:00,
2013-03-09 18:51:00,23.0,17.0,-100.00,NNW,339,24.0,29.0,76,0.00,,,-99.99,,2013-03-10 01:51:00,
2013-03-09 19:01:00,22.0,16.0,-100.00,NNW,340,22.0,29.0,77,0.00,,,-99.99,,2013-03-10 02:01:00,
2013-03-09 19:11:00,22.0,16.0,-100.00,NNW,340,22.0,27.0,77,0.00,,,-99.99,,2013-03-10 02:11:00,
2013-03-09 19:22:00,22.0,16.0,-100.00,NNW,337,18.0,23.0,79,0.00,,,-99.99,,2013-03-10 02:22:00,
2013-03-09 19:32:00,22.0,16.0,-100.00,NNW,337,19.0,23.0,78,0.00,,,-99.99,,2013-03-10 02:32:00,
2013-03-09 19:42:00,21.0,15.0,-100.00,NNW,337,17.0,21.0,77,0.00,,,-99.99,,2013-03-10 02:42:00,
2013-03-09 19:52:00,20.0,17.0,-100.00,NNW,336,16.0,24.0,85,0.00,,,-99.99,,2013-03-10 02:52:00,
2013-03-09 20:01:00,21.0,16.0,-100.00,NNW,335,15.0,19.0,81,0.00,,,-99.99,,2013-03-10 03:01:00,
2013-03-09 20:11:00,21.0,15.0,-100.00,NNW,332,15.0,18.0,79,0.00,,,-99.99,,2013-03-10 03:11:00,
2013-03-09 20:22:00,21.0,15.0,-100.00,NNW,332,16.0,19.0,79,0.00,,,-99.99,,2013-03-10 03:22:00,
2013-03-09 20:32:00,20.0,14.0,-100.00,NNW,336,17.0,22.0,79,0.00,,,-99.99,,2013-03-10 03:32:00,
2013-03-09 20:42:00,20.0,14.0,-100.00,NNW,333,17.0,22.0,78,0.00,,,-99.99,,2013-03-10 03:42:00,
2013-03-09 20:52:00,19.0,14.0,-100.00,NNW,328,14.0,19.0,80,0.00,,,-99.99,,2013-03-10 03:52:00,
2013-03-09 21:01:00,19.0,14.0,-100.00,NNW,328,16.0,20.0,80,0.00,,,-99.99,,2013-03-10 04:01:00,
2013-03-09 21:11:00,19.0,14.0,-100.00,NW,325,15.0,18.0,81,0.00,,,-99.99,,2013-03-10 04:11:00,
2013-03-09 21:21:00,18.0,13.0,-100.00,NW,322,15.0,17.0,80,0.00,,,-99.99,,2013-03-10 04:21:00,
2013-03-09 21:31:00,19.0,13.0,-100.00,NW,318,15.0,19.0,78,0.00,,,-99.99,,2013-03-10 04:31:00,
2013-03-09 21:41:00,19.0,13.0,-100.00,NW,320,15.0,17.0,77,0.00,,,-99.99,,2013-03-10 04:41:00,
2013-03-09 21:51:00,19.0,13.0,-100.00,NW,319,17.0,21.0,77,0.00,,,-99.99,,2013-03-10 04:51:00,
2013-03-09 22:01:00,19.0,13.0,-100.00,NW,320,17.0,22.0,78,0.00,,,-99.99,,2013-03-10 05:01:00,
2013-03-09 22:11:00,19.0,13.0,-100.00,NW,323,19.0,22.0,78,0.00,,,-99.99,,2013-03-10 05:11:00,
2013-03-09 22:22:00,20.0,14.0,-100.00,NW,326,21.0,27.0,78,0.00,,,-99.99,,2013-03-10 05:22:00,
2013-03-09 22:31:00,20.0,14.0,-100.00,NW,325,21.0,27.0,79,0.00,,,-99.99,,2013-03-10 05:31:00,
2013-03-09 22:42:00,20.0,15.0,-100.00,NW,325,19.0,24.0,80,0.00,,,-99.99,,2013-03-10 05:42:00,
2013-03-09 22:52:00,20.0,16.0,-100.00,NW,322,18.0,22.0,85,0.01,,,-99.99,,2013-03-10 05:52:00,
2013-03-09 23:01:00,20.0,16.0,-100.00,NW,326,21.0,26.0,87,0.00,,,-99.99,,2013-03-10 06:01:00,
2013-03-09 23:11:00,20.0,16.0,-100.00,NNW,333,24.0,29.0,87,0.00,,,-99.99,,2013-03-10 06:11:00,
2013-03-09 23:22:00,19.0,17.0,-100.00,NNW,336,22.0,26.0,89,0.01,,,-99.99,,2013-03-10 06:22:00,
2013-03-09 23:32:00,19.0,17.0,-100.00,NNW,332,18.0,22.0,89,0.01,,,-99.99,,2013-03-10 06:32:00,
2013-03-09 23:42:00,19.0,17.0,-100.00,NNW,332,17.0,21.0,90,0.01,,,-99.99,,2013-03-10 06:42:00,
2013-03-09 23:51:00,19.0,17.0,-100.00,NNW,330,16.0,19.0,90,0.04,,,-99.99,,2013-03-10 06:51:00,